San Antonio Stinson, TX

5:37 PM CST on December 16, 2017 (GMT -0600)
Stinson Municipal

Weather History for KSSF - November, 2011

Change the Weather History Date:

Sunday, November 6, 2011

  Actual Average Record
Temperature  
Mean Temperature 76 °F -  
Max Temperature 82 °F 71 °F 91 °F (2017)
Min Temperature 70 °F 52 °F 39 °F (2010)
Cooling Degree Days 10    
Growing Degree Days 26 (Base 50)    
Moisture  
Dew Point 67 °F    
Average Humidity 77    
Maximum Humidity 87    
Minimum Humidity 65    
Precipitation  
Precipitation 0.00 in - - ()
Sea Level Pressure  
Sea Level Pressure 29.95 in    
Wind  
Wind Speed 8 mph (SE)    
Max Wind Speed 15 mph    
Max Gust Speed 23 mph    
Visibility 10 miles    
Events      
Averages and records for this station are not official NWS values.
T = Trace of Precipitation, MM = Missing Value Source: NWS Daily Summary

Daily Weather History Graph

Daily Weather History Graph

Search for Another Location

Airport or City:

Trip Planner

Search our weather history database for the weather conditions in past years. The results will help you decide how hot, cold, wet, or windy it might be!

Date:

Astronomy

Nov. 06, 2011 Rise Set
Actual Time 6:50 AM CST 5:44 PM CST
Civil Twilight 6:25 AM CST 6:08 PM CST
Nautical Twilight 5:57 AM CST 6:37 PM CST
Astronomical Twilight 5:29 AM CST 7:05 PM CST
Moon 3:16 PM CST (11/6) 3:13 AM CST (11/6)
Length of Visible Light 11h 43m
Length of Day
10h 53m
Waxing Gibbous, 86% of the Moon is Illuminated
Nov 6
Waxing Gibbous
Nov 10
Full
Nov 18
Last Quarter
Nov 25
New
Dec 2
First Quarter

Hourly Weather History & Observations

Time (CST) Temp. Heat Index Dew Point Humidity Pressure Visibility Wind Dir Wind Speed Gust Speed Precip Events Conditions
12:53 AM 71.1 °F - 64.0 °F 78% 29.90 in 10.0 mi East 5.8 mph - N/A   Overcast
1:53 AM 71.1 °F - 64.9 °F 81% 29.89 in 10.0 mi ESE 10.4 mph - N/A   Overcast
1:53 AM 71.1 °F - 64.9 °F 81% 29.88 in 10.0 mi ESE 5.8 mph - N/A   Overcast
2:53 AM 71.1 °F - 64.9 °F 81% 29.89 in 10.0 mi East 4.6 mph - N/A   Overcast
3:53 AM 71.1 °F - 66.0 °F 84% 29.90 in 10.0 mi ESE 3.5 mph - N/A   Overcast
4:53 AM 71.1 °F - 66.0 °F 84% 29.91 in 10.0 mi SE 6.9 mph - N/A   Overcast
5:53 AM 71.1 °F - 66.0 °F 84% 29.92 in 10.0 mi ESE 5.8 mph - N/A   Overcast
6:53 AM 70.0 °F - 66.0 °F 87% 29.94 in 10.0 mi ESE 5.8 mph - N/A   Overcast
7:40 AM 71.6 °F - 66.2 °F 83% 29.98 in 10.0 mi ESE 4.6 mph - N/A   Overcast
7:53 AM 71.1 °F - 66.9 °F 87% 29.96 in 10.0 mi ESE 4.6 mph - N/A   Overcast
8:05 AM 71.6 °F - 66.2 °F 83% 29.99 in 10.0 mi ESE 3.5 mph - N/A   Overcast
8:53 AM 73.0 °F - 68.0 °F 84% 29.97 in 10.0 mi ESE 4.6 mph - N/A   Overcast
9:01 AM 73.4 °F - 68.0 °F 83% 30.00 in 10.0 mi ESE 4.6 mph - N/A   Overcast
9:37 AM 73.4 °F - 68.0 °F 83% 30.00 in 10.0 mi SE 5.8 mph - N/A   Overcast
9:53 AM 73.9 °F - 68.0 °F 82% 29.98 in 10.0 mi SE 9.2 mph - N/A   Overcast
10:10 AM 75.2 °F - 68.0 °F 78% 30.01 in 10.0 mi SE 9.2 mph - N/A   Overcast
10:53 AM 77.0 °F - 69.1 °F 76% 29.98 in 10.0 mi SE 11.5 mph - N/A   Overcast
11:41 AM 78.8 °F - 69.8 °F 74% 29.99 in 10.0 mi SE 9.2 mph - N/A   Overcast
11:53 AM 79.0 °F - 69.1 °F 72% 29.96 in 10.0 mi SSE 8.1 mph - N/A   Overcast
12:12 PM 78.8 °F - 69.8 °F 74% 29.98 in 10.0 mi SSE 10.4 mph - N/A   Overcast
12:22 PM 80.6 °F 83.2 °F 68.0 °F 65% 29.97 in 10.0 mi SSE 9.2 mph - N/A   Overcast
12:35 PM 80.6 °F 83.2 °F 68.0 °F 65% 29.96 in 10.0 mi SE 11.5 mph - N/A   Overcast
12:43 PM 80.6 °F 83.9 °F 69.8 °F 70% 29.96 in 10.0 mi SSE 10.4 mph - N/A   Overcast
12:53 PM 80.1 °F 82.9 °F 69.1 °F 69% 29.93 in 10.0 mi South 10.4 mph - N/A   Overcast
1:53 PM 81.0 °F 83.8 °F 68.0 °F 65% 29.91 in 10.0 mi SSE 10.4 mph - N/A   Overcast
2:53 PM 81.0 °F 83.8 °F 68.0 °F 65% 29.89 in 10.0 mi SE 13.8 mph - N/A   Overcast
3:53 PM 80.1 °F 82.7 °F 68.0 °F 67% 29.90 in 10.0 mi SE 12.7 mph - N/A   Overcast
4:53 PM 79.0 °F - 66.9 °F 66% 29.91 in 10.0 mi SE 13.8 mph 23.0 mph 0.00 in   Mostly Cloudy
5:53 PM 77.0 °F - 68.0 °F 74% 29.92 in 10.0 mi SE 15.0 mph - 0.00 in   Overcast
6:53 PM 77.0 °F - 68.0 °F 74% 29.95 in 10.0 mi SE 11.5 mph - N/A   Overcast
7:53 PM 75.9 °F - 68.0 °F 76% 29.96 in 10.0 mi SE 9.2 mph - N/A   Overcast
8:53 PM 75.9 °F - 68.0 °F 76% 29.98 in 10.0 mi SE 6.9 mph - N/A   Overcast
9:31 PM 75.2 °F - 68.0 °F 78% 30.01 in 10.0 mi SE 10.4 mph - N/A   Overcast
9:53 PM 75.0 °F - 68.0 °F 79% 29.98 in 10.0 mi SE 12.7 mph - N/A   Overcast
10:53 PM 75.0 °F - 68.0 °F 79% 29.99 in 10.0 mi SE 8.1 mph - N/A   Overcast